Theta_e
324 329 331 336 335 338 342 342 346 349 347 345 345 346 346 344 345 344 344 345 345 345 345 346 346 346 346 347 347 347 347 345 344 346 347 346 345 346 347 348 341 341 342 342
327 328 330 330 332 334 340 341 346 343 341 343 346 347 347 345 344 343 345 346 346 345 345 347 346 346 346 347 347 347 346 343 343 347 348 347 348 345 346 348 343 346 341 342
326 328 327 329 330 331 334 336 342 342 344 341 341 349 348 345 344 344 344 344 345 345 345 346 347 347 347 347 348 347 347 346 342 348 348 348 348 347 345 348 347 345 340 344
326 326 328 329 330 331 334 332 338 340 343 340 341 348 343 348 346 346 345 346 345 345 344 345 346 347 347 347 348 347 349 344 341 341 347 348 345 345 345 347 347 348 341 345
325 325 325 327 329 329 333 335 339 339 342 341 344 345 348 348 351 348 346 347 345 345 344 345 346 346 346 348 348 347 349 342 346 340 347 343 345 346 346 347 349 348 343 340
323 322 324 325 327 326 335 338 340 342 342 342 342 344 344 351 348 348 346 345 346 344 342 343 344 346 347 347 347 347 349 346 344 341 343 343 345 347 345 346 347 347 346 347
323 323 325 328 330 327 335 339 342 342 342 341 341 346 341 341 345 346 345 345 345 345 342 342 345 346 347 347 347 347 349 349 347 344 346 343 345 346 345 346 347 347 346 346
325 325 328 332 331 331 332 334 334 336 337 340 341 345 342 340 340 343 343 345 345 345 342 342 344 346 347 347 348 347 349 349 349 347 346 340 344 344 344 344 345 346 346 346
328 325 327 332 333 334 333 336 332 335 337 338 338 339 339 338 341 342 342 345 344 344 343 343 344 346 347 348 348 348 349 349 347 347 342 344 342 342 348 348 348 347 348 347
329 329 326 327 331 333 337 335 335 333 343 339 341 341 339 339 343 341 342 342 345 345 343 342 345 346 346 347 348 349 349 350 350 348 345 345 347 342 344 342 343 348 348 349
329 329 329 328 332 333 334 337 336 338 342 341 339 338 343 343 347 344 340 342 345 345 344 343 344 345 347 347 348 349 350 351 351 350 349 348 348 348 343 347 347 348 345 342
329 328 329 328 329 329 331 333 335 335 336 335 335 335 345 347 345 344 339 339 342 343 345 344 343 345 346 348 349 349 350 350 350 350 350 349 349 348 346 342 347 347 348 343
328 328 329 328 329 330 332 334 334 331 331 333 332 335 345 346 346 346 343 340 336 340 341 343 344 345 346 349 350 350 350 350 351 350 349 350 350 349 346 346 342 346 347 346
325 327 328 329 330 330 333 334 336 332 330 329 329 330 339 346 348 346 346 346 344 344 343 343 345 344 347 348 351 351 351 351 351 351 349 349 344 349 350 350 349 346 344 343
325 327 328 327 327 328 329 334 334 335 332 334 332 333 332 342 346 345 345 346 346 345 344 346 344 345 349 350 350 351 351 350 351 352 351 347 347 347 349 350 349 342 345 344
326 326 326 326 326 328 329 331 334 336 337 337 338 341 343 342 343 344 343 344 345 347 346 345 345 346 348 351 349 350 351 352 353 352 352 349 344 344 341 339 346 345 347 349
325 324 326 325 329 329 332 331 332 332 337 338 339 344 343 344 344 340 340 341 340 343 348 347 346 348 349 348 350 344 351 353 344 345 350 348 350 347 345 344 342 349 350 350
323 326 326 326 327 330 329 333 333 335 336 338 340 341 342 344 340 339 338 337 339 341 343 348 347 345 343 347 344 344 343 347 343 343 344 345 348 350 346 346 349 350 346 346
327 328 327 328 326 326 327 329 332 335 333 336 340 342 342 341 339 338 336 337 338 340 343 343 346 346 341 342 343 341 342 342 340 344 345 344 347 346 347 349 348 347 346 347
327 327 329 328 329 328 331 331 331 333 336 333 339 341 340 341 347 344 335 337 338 340 343 344 345 347 347 346 346 346 346 346 347 346 345 344 342 340 338 341 344 344 343 344
327 328 327 328 330 328 329 329 331 333 335 337 339 341 341 342 340 337 334 337 338 339 341 342 343 344 344 346 346 345 344 345 346 345 342 339 338 338 341 339 343 343 343 342
325 325 326 327 328 328 328 329 333 334 335 336 340 340 340 338 336 333 335 336 337 339 340 340 341 342 342 343 342 341 341 338 340 341 340 339 339 339 340 341 341 341 342 341
327 326 329 326 326 329 328 329 331 331 334 336 337 338 338 336 335 334 334 335 337 338 339 340 340 340 337 337 336 335 337 339 341 339 337 337 339 339 338 337 338 337 338 337
327 327 327 330 326 327 327 327 330 331 332 334 336 337 335 335 334 335 334 334 333 336 337 338 339 339 339 340 339 339 341 340 335 337 336 336 336 335 338 335 336 336 336 336
326 328 328 327 325 326 328 330 332 331 332 335 336 335 335 335 334 335 334 335 334 331 334 335 336 336 336 337 338 338 339 337 338 337 336 337 338 338 337 337 336 336 335 335
326 325 327 325 323 325 331 330 331 333 333 334 333 335 334 334 333 333 332 331 331 332 332 330 330 333 333 333 334 335 336 336 337 337 336 335 335 334 334 334 334 335 335 334
Wind_Speed
11 9 11 12 5 4 2 7 10 10 9 5 6 8 6 11 14 18 21 22 21 18 17 16 15 16 15 15 15 15 14 16 16 14 13 11 11 9 7 7 10 8 9 9
9 12 6 3 6 3 4 3 10 8 4 3 8 6 9 15 12 20 21 22 20 20 19 18 17 17 17 17 16 17 16 17 16 14 13 12 12 9 8 9 9 7 7 8
10 6 7 9 9 9 7 4 6 4 7 4 3 8 8 6 14 20 21 22 22 20 20 20 20 19 18 18 18 17 18 16 16 15 15 13 14 10 9 9 8 8 9 6
5 6 9 8 9 9 11 5 4 7 9 5 3 2 1 12 15 22 26 21 22 23 22 21 21 20 19 18 18 18 19 18 17 17 15 15 13 11 10 10 10 8 11 8
7 10 8 9 11 7 5 4 6 5 3 6 1 5 7 7 10 17 25 25 22 25 26 23 22 22 20 18 18 19 19 21 16 17 16 16 14 10 10 11 11 10 11 11
1 2 5 3 2 9 4 6 5 6 5 8 1 7 2 7 14 18 23 31 25 24 25 23 22 21 21 19 19 19 19 21 21 19 17 18 14 12 12 12 11 9 8 8
7 11 6 7 7 9 13 13 7 7 7 4 3 6 5 1 7 17 27 33 34 26 25 25 22 22 22 22 21 20 20 21 21 20 17 18 16 15 15 15 12 10 9 9
3 10 12 10 11 8 14 14 7 7 4 3 4 4 4 4 6 16 14 27 31 32 29 26 24 24 24 23 22 21 21 21 20 20 19 18 16 16 14 14 12 12 10 9
3 4 5 5 5 11 11 9 11 8 6 5 3 6 9 2 8 9 11 21 27 34 31 28 26 25 24 24 23 23 21 21 21 20 21 19 18 15 14 14 14 14 13 10
4 5 6 8 7 10 12 6 9 9 5 5 5 3 6 6 4 8 9 14 27 36 31 30 27 24 24 25 23 21 21 21 21 20 20 19 19 20 18 17 16 13 14 13
7 6 9 5 9 6 8 11 12 6 8 1 4 4 6 1 2 3 7 11 16 31 30 27 27 25 24 25 24 22 21 21 21 21 20 20 18 17 19 17 18 17 17 17
4 6 8 6 6 5 12 11 15 9 10 5 5 0 4 4 1 8 11 6 9 16 28 26 26 26 24 25 25 24 22 22 21 20 21 20 19 18 17 19 17 17 17 15
4 4 8 13 10 8 8 7 11 11 15 10 6 1 4 7 7 4 7 6 5 14 22 27 26 26 25 25 26 24 23 22 20 20 21 21 20 19 19 18 18 18 17 17
4 8 8 12 7 8 4 8 7 13 11 11 9 13 5 4 8 7 5 6 10 17 26 27 31 32 27 25 26 26 24 22 21 20 21 21 21 21 18 17 17 18 19 19
5 10 6 12 10 9 10 10 7 12 10 9 4 8 5 3 1 3 3 4 3 9 13 19 29 31 27 25 23 26 24 23 22 21 21 21 19 18 18 18 18 18 18 18
3 7 7 12 11 11 13 12 10 9 7 11 6 9 2 3 4 1 5 8 7 1 6 11 20 23 25 22 23 20 21 21 21 20 20 19 20 20 18 19 18 18 19 17
6 8 6 10 3 8 11 15 13 12 6 9 10 6 4 4 3 3 5 7 7 6 1 7 12 15 17 20 17 18 17 19 26 24 21 21 20 22 21 20 20 18 19 18
8 7 6 9 5 11 2 5 6 9 9 8 11 5 3 3 5 4 4 5 5 2 4 4 5 11 13 11 15 14 15 19 17 16 20 17 20 20 19 23 21 19 22 21
4 7 7 7 10 8 7 5 7 9 12 7 7 3 3 4 5 3 4 4 2 4 5 5 8 8 14 16 14 13 16 20 24 28 20 25 22 19 21 22 22 21 19 18
3 5 7 8 7 8 5 7 1 4 11 11 6 4 6 4 7 6 3 3 3 5 8 10 11 15 16 13 15 17 15 13 16 16 14 13 13 14 16 21 27 28 24 21
5 5 8 8 7 8 4 2 2 7 2 4 7 6 8 5 6 5 3 5 6 6 10 12 13 16 17 18 15 12 13 15 17 14 11 9 8 9 9 14 22 22 24 22
5 4 5 2 5 9 4 3 8 5 3 6 8 7 6 6 6 5 5 6 7 9 9 9 12 13 14 16 14 14 13 13 12 10 9 7 2 4 6 3 9 16 22 23
6 5 5 3 6 1 2 8 4 7 6 1 8 7 9 10 8 6 6 7 9 9 11 11 11 12 11 10 11 13 13 10 12 10 7 6 7 7 5 4 6 10 7 5
7 5 5 3 5 6 8 11 12 13 9 5 7 12 12 10 9 8 6 7 8 11 13 12 11 11 13 12 11 11 14 12 8 5 5 7 7 5 4 6 6 6 7 5
5 9 8 9 13 8 11 9 6 10 9 8 12 13 14 12 13 11 9 8 8 10 13 14 15 16 16 15 12 14 13 10 7 8 8 6 5 5 6 9 7 5 5 4
10 10 8 8 6 4 2 6 4 6 10 10 11 14 14 15 13 13 11 10 10 11 12 13 14 16 17 16 16 16 15 12 11 12 12 11 10 10 9 7 6 4 3 3
Wind_Direction
194 213 208 197 51 36 82 85 88 101 149 114 162 185 224 195 197 251 209 194 192 193 182 186 184 186 186 187 190 187 176 178 178 177 176 174 172 172 167 164 165 150 152 145
181 223 115 195 179 187 173 133 99 106 144 210 174 155 186 193 207 225 229 198 206 193 188 189 189 190 192 193 193 193 189 188 185 181 180 179 178 176 171 168 172 161 161 158
209 137 155 196 190 217 212 252 156 75 160 149 156 163 169 204 199 224 233 225 206 200 193 194 193 194 196 196 197 195 192 195 191 189 190 185 184 179 178 180 177 178 174 169
220 132 200 208 221 231 248 176 182 156 237 23 325 290 245 175 200 213 215 221 218 209 202 196 198 198 199 199 198 198 195 196 193 189 194 193 185 188 194 188 189 191 187 186
112 186 192 220 234 219 298 162 207 223 267 260 132 258 129 165 201 211 220 222 226 210 208 205 202 202 200 198 198 198 198 199 194 192 187 185 184 196 189 185 197 179 201 198
216 158 240 290 176 233 148 168 172 231 271 244 137 289 180 172 205 193 221 221 225 224 208 209 204 200 199 199 197 199 199 203 201 200 198 191 205 194 187 183 184 190 198 211
166 195 171 222 181 174 198 186 195 222 204 296 126 264 43 339 191 188 191 216 221 216 216 205 204 200 199 198 198 200 199 203 207 208 207 208 209 207 202 200 193 199 208 217
256 177 189 184 232 190 213 227 259 247 233 227 141 242 78 267 262 192 214 209 211 216 216 204 205 201 200 200 200 199 202 202 206 212 211 208 209 206 208 217 211 219 220 229
278 180 167 194 193 238 170 232 264 278 171 280 132 241 245 203 179 180 212 195 208 208 209 205 206 205 201 201 202 201 202 204 208 207 212 215 217 205 214 216 221 223 218 225
64 262 169 131 221 238 263 274 213 232 222 227 102 286 292 192 97 153 204 247 202 203 207 203 205 205 203 204 203 203 204 206 207 207 212 218 222 226 231 229 225 216 223 234
309 268 150 186 210 225 184 231 246 127 309 138 216 77 18 44 9 174 209 237 200 200 202 208 207 209 205 203 202 204 204 205 207 209 211 213 220 227 234 228 229 230 239 244
34 296 272 237 77 306 286 279 221 236 234 230 327 244 83 59 70 193 166 130 200 213 202 203 209 209 209 203 202 202 204 206 207 209 212 216 220 224 225 228 229 229 235 240
14 252 264 236 178 200 240 209 260 275 286 260 277 133 106 100 94 70 150 89 336 263 229 222 214 208 208 207 203 202 204 206 207 206 209 213 219 223 224 229 238 231 237 239
284 279 277 290 359 336 219 213 245 253 246 250 216 261 144 121 119 108 111 141 214 237 240 222 219 218 210 206 207 204 205 206 207 207 207 212 218 218 220 223 228 235 238 245
276 274 291 283 285 277 273 282 240 256 263 283 21 263 277 207 104 58 38 48 179 226 224 220 210 211 208 204 203 204 204 208 207 210 212 215 219 220 221 219 229 233 234 243
249 282 288 280 264 266 259 241 247 264 278 270 257 275 36 192 189 77 27 15 16 297 205 207 203 207 210 202 205 203 205 207 210 213 220 224 229 232 234 234 230 233 234 237
286 286 268 279 30 278 252 248 237 257 273 283 268 23 164 182 182 46 34 35 10 18 219 198 202 207 211 208 205 203 202 215 218 220 224 226 232 236 239 240 235 229 232 233
267 254 282 274 268 242 34 5 303 283 278 272 280 278 284 71 106 72 35 56 20 42 95 127 177 195 210 195 212 210 223 217 227 238 239 254 245 240 239 242 236 229 233 233
260 274 278 262 255 261 262 210 234 236 252 221 268 197 157 147 134 103 48 51 59 46 102 105 144 143 193 217 209 218 244 214 225 242 238 245 252 252 251 241 236 231 233 233
212 243 263 263 285 267 54 46 296 279 259 226 220 173 178 197 240 102 103 87 108 81 113 113 131 144 147 152 168 183 189 194 209 221 217 208 220 243 262 254 237 241 247 237
216 247 256 256 244 274 82 153 207 237 57 310 200 178 171 225 23 99 125 110 117 146 111 113 120 126 129 129 136 152 175 180 180 180 192 231 258 260 253 262 250 245 234 234
268 278 239 256 262 262 52 174 252 7 325 270 215 190 159 125 114 120 136 122 117 126 142 136 127 117 127 125 129 132 139 134 131 138 136 121 135 171 92 275 246 250 221 235
245 245 326 290 318 41 256 268 271 274 298 312 206 178 150 147 132 131 123 112 111 125 131 133 137 131 121 123 123 145 140 130 131 138 147 143 153 158 151 134 101 93 78 94
205 204 247 266 219 268 269 256 250 244 247 206 167 154 151 147 129 131 122 110 108 111 121 125 145 146 143 135 134 126 139 148 140 130 139 164 172 168 181 180 175 147 144 157
336 155 238 252 262 256 250 246 242 226 224 184 170 170 153 147 154 154 143 121 113 108 110 119 121 117 112 117 130 138 145 150 151 145 134 131 140 161 174 164 171 165 183 186
192 245 233 281 6 277 57 157 139 172 180 179 176 156 154 160 158 148 137 131 128 117 114 113 111 117 118 118 119 115 114 121 129 132 130 127 120 111 118 133 144 150 161 175